Weather History for KSLN - February, 2012

Change the Weather History Date:

Tuesday, February 21, 2012

  Actual Average Record
Temperature  
Mean Temperature 44 °F 37 °F  
Max Temperature 57 °F 48 °F 80 °F (1977)
Min Temperature 30 °F 26 °F -3 °F (1939)
Degree Days  
Heating Degree Days 21 28  
Month to date heating degree days 622 641  
Since 1 July heating degree days 3416 3657  
Cooling Degree Days 0 0  
Month to date cooling degree days 0 0  
Year to date cooling degree days 0 0  
Moisture  
Dew Point 24 °F    
Average Humidity 50    
Maximum Humidity 78    
Minimum Humidity 22    
Precipitation  
Precipitation T in 0.05 in 0.90 in (1971)
Month to date precipitation 2.01 0.84  
Year to date precipitation 2.16 1.47  
Sea Level Pressure  
Sea Level Pressure 29.89 in    
Wind  
Wind Speed 12 mph (WSW)    
Max Wind Speed 23 mph    
Max Gust Speed 29 mph    
Visibility 10 miles    
Events      
T = Trace of Precipitation, MM = Missing Value Source: NWS Daily Summary

Daily Weather History Graph

Daily Weather History Graph

Search for Another Location

Airport or City:

Trip Planner

Search our weather history database for the weather conditions in past years. The results will help you decide how hot, cold, wet, or windy it might be!

Date:

Astronomy

Feb. 21, 2012 Rise Set
Actual Time 7:14 AM CST 6:14 PM CST
Civil Twilight 6:47 AM CST 6:41 PM CST
Nautical Twilight 6:16 AM CST 7:12 PM CST
Astronomical Twilight 5:45 AM CST 7:43 PM CST
Moon 6:44 AM CST (2/21) 6:21 PM CST (2/21)
Length of Visible Light 11h 53m
Length of Day
10h 59m
Waning Crescent, 0% of the Moon is Illuminated
Feb 21
Waning Crescent
Feb 21
New
Feb 29
First Quarter
Mar 8
Full
Mar 14
Last Quarter

Hourly Weather History & Observations

Time (CST) Temp. Windchill Dew Point Humidity Pressure Visibility Wind Dir Wind Speed Gust Speed Precip Events Conditions
12:53 AM 37.0 °F 26.7 °F 28.0 °F 70% 29.86 in 10.0 mi WNW 19.6 mph - 0.00 in   Clear
1:53 AM 36.0 °F 26.3 °F 26.1 °F 67% 29.90 in 10.0 mi West 16.1 mph - N/A   Clear
2:53 AM 35.1 °F 26.4 °F 25.0 °F 67% 29.91 in 10.0 mi West 12.7 mph - N/A   Clear
3:53 AM 33.1 °F 23.0 °F 25.0 °F 72% 29.92 in 10.0 mi West 15.0 mph - N/A   Clear
4:53 AM 32.0 °F 23.0 °F 23.0 °F 69% 29.95 in 10.0 mi WSW 11.5 mph - N/A   Clear
5:53 AM 30.0 °F 21.7 °F 24.1 °F 79% 29.96 in 10.0 mi SW 9.2 mph - N/A   Clear
6:53 AM 30.9 °F 22.2 °F 21.9 °F 69% 29.96 in 10.0 mi WSW 10.4 mph - N/A   Clear
7:53 AM 30.9 °F 22.8 °F 21.9 °F 69% 29.98 in 10.0 mi WSW 9.2 mph - N/A   Clear
8:53 AM 35.1 °F 27.9 °F 24.1 °F 64% 29.98 in 10.0 mi West 9.2 mph - N/A   Clear
9:53 AM 39.9 °F 34.5 °F 25.0 °F 55% 29.98 in 10.0 mi WSW 8.1 mph - N/A   Clear
10:53 AM 46.4 °F 41.9 °F 26.6 °F 46% 29.96 in 10.0 mi WSW 9.2 mph - N/A   Clear
11:53 AM 51.1 °F - 26.1 °F 38% 29.97 in 10.0 mi SW 12.7 mph - N/A   Clear
12:53 PM 54.0 °F - 23.0 °F 30% 29.93 in 10.0 mi West 15.0 mph - N/A   Clear
1:53 PM 55.0 °F - 21.0 °F 27% 29.88 in 10.0 mi West 16.1 mph 20.7 mph N/A   Clear
2:53 PM 55.9 °F - 18.0 °F 23% 29.86 in 10.0 mi WSW 11.5 mph - N/A   Clear
3:53 PM 57.0 °F - 21.0 °F 25% 29.85 in 10.0 mi SW 12.7 mph - N/A   Clear
4:53 PM 55.0 °F - 23.0 °F 29% 29.84 in 10.0 mi SSW 13.8 mph - N/A   Clear
5:53 PM 52.0 °F - 23.0 °F 32% 29.85 in 10.0 mi SW 10.4 mph - N/A   Clear
6:53 PM 42.1 °F 36.6 °F 26.1 °F 53% 29.85 in 10.0 mi South 9.2 mph - N/A   Clear
7:53 PM 45.0 °F 38.5 °F 25.0 °F 46% 29.83 in 10.0 mi SSW 13.8 mph - N/A   Clear
8:53 PM 43.0 °F 36.0 °F 26.1 °F 51% 29.81 in 10.0 mi SSW 13.8 mph - N/A   Clear
9:53 PM 39.9 °F 32.9 °F 26.1 °F 58% 29.79 in 10.0 mi SSW 11.5 mph - N/A   Clear
10:53 PM 37.9 °F 30.5 °F 26.1 °F 62% 29.77 in 10.0 mi SSW 11.5 mph - N/A   Clear
11:53 PM 39.9 °F 31.8 °F 25.0 °F 55% 29.73 in 10.0 mi SSW 15.0 mph - N/A   Clear